1505977204;12.020;5.077;6.612;6.251;8.733
1505977209;11.718;5.015;6.609;6.257;8.904
1505977214;11.680;5.018;6.613;6.286;8.716
1505977219;11.706;5.023;6.616;6.277;8.730
1505977224;12.020;5.080;6.602;6.281;8.738
1505977229;11.686;5.015;6.596;6.252;8.886
1505977235;11.718;5.026;6.596;6.272;8.699
1505977240;11.716;5.026;6.618;6.268;8.742
1505977245;11.987;5.070;6.602;6.278;8.715
1505977250;11.647;5.073;6.605;6.249;8.890
1505977255;11.675;5.020;6.616;6.279;8.653
1505977260;11.688;5.019;6.608;6.275;8.735
1505977265;12.013;5.050;6.600;6.277;8.729
1505977270;11.875;5.080;6.604;6.254;8.890
1505977275;11.718;5.026;6.618;6.277;8.897
1505977280;11.718;5.026;6.599;6.273;8.739
1505977285;12.021;5.025;6.601;6.274;8.728
1505977290;11.984;5.074;6.596;6.253;8.732
1505977295;11.711;5.013;6.612;6.250;8.891
1505977300;11.718;5.026;6.601;6.277;8.727
1505977305;11.714;5.026;6.596;6.281;8.738
1505977310;12.021;5.081;6.603;6.279;8.730
1505977315;11.687;5.015;6.603;6.253;8.900
1505977320;11.680;5.019;6.616;6.281;8.675
1505977325;11.709;5.025;6.608;6.276;8.739
1505977330;12.021;5.080;6.593;6.277;8.734
1505977335;11.654;5.079;6.605;6.250;8.896
1505977340;11.717;5.026;6.597;6.279;8.850
1505977346;11.718;5.028;6.606;6.275;8.731
1505977351;11.967;5.057;6.608;6.272;8.725
1505977356;11.769;5.078;6.600;6.246;8.892
1505977361;11.718;5.026;6.621;6.275;8.898
1505977366;11.718;5.027;6.614;6.270;8.729
1505977371;12.021;5.027;6.618;6.264;8.743
1505977376;12.020;5.080;6.603;6.239;8.729
1505977381;11.718;5.020;6.606;6.255;8.841
1505977386;11.705;5.024;6.616;6.265;8.731
1505977391;11.714;5.027;6.609;6.271;8.735
1505977396;12.020;5.081;6.603;6.264;8.727
1505977401;11.715;5.015;6.603;6.248;8.894
1505977406;11.718;5.027;6.603;6.270;8.709
1505977411;11.715;5.027;6.605;6.271;8.736
1505977416;11.982;5.074;6.598;6.266;8.732
1505977421;11.656;5.040;6.605;6.244;8.885
1505977426;11.718;5.026;6.597;6.278;8.707
1505977431;11.716;5.026;6.603;6.272;8.738
1505977436;12.021;5.081;6.618;6.272;8.736
1505977441;11.654;5.080;6.605;6.251;8.896
1505977446;11.701;5.022;6.613;6.287;8.883
1505977451;11.710;5.025;6.609;6.278;8.725
1505977456;12.021;5.028;6.614;6.273;8.726
1505977462;12.020;5.081;6.604;6.246;8.750
1505977467;11.718;5.026;6.604;6.249;8.891
1505977472;11.718;5.027;6.606;6.272;8.732
1505977477;11.820;5.021;6.615;6.280;8.709
1505977482;12.013;5.081;6.609;6.254;8.733
1505977487;11.719;5.016;6.604;6.245;8.896
1505977492;11.718;5.027;6.596;6.268;8.708
1505977497;11.715;5.027;6.606;6.269;8.736
1505977502;12.020;5.081;6.605;6.268;8.731
1505977507;11.670;5.016;6.603;6.247;8.893
1505977512;11.685;5.022;6.610;6.274;8.689
1505977517;11.710;5.026;6.597;6.267;8.736
1505977522;12.022;5.080;6.609;6.266;8.735
1505977527;11.655;5.081;6.604;6.248;8.901
1505977532;11.718;5.028;6.609;6.277;8.848
1505977537;11.714;5.029;6.619;6.276;8.730
1505977542;11.982;5.058;6.599;6.272;8.698
1505977547;11.769;5.080;6.601;6.243;8.891
1505977552;11.718;5.027;6.607;6.279;8.900
1505977557;11.718;5.030;6.611;6.268;8.742
1505977562;12.022;5.028;6.597;6.263;8.738
1505977567;12.021;5.082;6.605;6.241;8.765
1505977572;11.681;5.012;6.602;6.258;8.869
1505977577;11.711;5.028;6.598;6.271;8.735
1505977583;11.705;5.028;6.596;6.266;8.727
1505977588;12.021;5.082;6.604;6.260;8.737
1505977593;11.719;5.017;6.602;6.247;8.888
1505977598;11.719;5.028;6.610;6.267;8.707
1505977603;11.716;5.027;6.603;6.321;8.716
1505977608;12.014;5.081;6.599;6.275;8.725
1505977613;11.656;5.046;6.605;6.246;8.899
1505977618;11.719;5.028;6.614;6.270;8.702
1505977623;11.717;5.027;6.595;6.266;8.727
1505977628;12.022;5.081;6.605;6.251;8.729
1505977633;11.720;5.017;6.605;6.251;8.890
1505977638;11.683;5.024;6.606;6.273;8.706
1505977643;11.715;5.028;6.600;6.276;8.723
1505977648;12.022;5.084;6.602;6.270;8.732
1505977653;11.680;5.017;6.605;6.246;8.898
1505977658;11.719;5.028;6.603;6.271;8.683
1505977663;11.718;5.029;6.596;6.272;8.728
1505977668;11.989;5.076;6.613;6.268;8.719
1505977673;11.648;5.080;6.602;6.245;8.890
1505977678;11.719;5.029;6.615;6.277;8.817
1505977683;11.719;5.031;6.596;6.270;8.729
1505977688;12.021;5.040;6.596;6.268;8.738
1505977693;12.002;5.082;6.604;6.243;8.896
1505977699;11.682;5.022;6.607;6.268;8.879
1505977704;11.712;5.028;6.605;6.274;8.736
1505977709;11.959;5.028;6.611;6.272;8.741
1505977714;12.022;5.084;6.600;6.245;8.727
1505977719;11.720;5.017;6.613;6.247;8.881
1505977724;11.718;5.029;6.600;6.274;8.712
1505977729;11.683;5.017;6.622;6.285;8.714
1505977734;12.014;5.082;6.600;6.272;8.733
1505977739;11.667;5.017;6.604;6.253;8.895
1505977744;11.719;5.029;6.596;6.277;8.694
1505977749;11.718;5.030;6.612;6.274;8.730
1505977754;12.023;5.084;6.617;6.273;8.737
1505977759;11.655;5.080;6.606;6.254;8.881
1505977764;11.687;5.023;6.602;6.279;8.781
1505977769;11.711;5.029;6.610;6.271;8.745
1505977774;12.023;5.050;6.610;6.269;8.734
1505977779;11.882;5.083;6.605;6.239;8.840
1505977784;11.720;5.029;6.616;6.267;8.893
1505977789;11.719;5.030;6.610;6.270;8.735
1505977794;11.988;5.023;6.604;6.276;8.705
1505977799;12.015;5.082;6.600;6.245;8.724
1505977804;11.720;5.021;6.605;6.250;8.900
1505977809;11.719;5.030;6.619;6.277;8.701
1505977815;11.714;5.030;6.597;6.271;8.734
1505977820;12.023;5.082;6.603;6.275;8.733
1505977825;11.676;5.002;6.607;6.255;8.873
1505977830;11.712;5.029;6.604;6.278;8.701
1505977835;11.716;5.030;6.604;6.271;8.740
1505977840;12.023;5.084;6.604;6.267;8.732
1505977845;11.656;5.049;6.604;6.244;8.887
1505977850;11.719;5.029;6.616;6.280;8.710
1505977855;11.719;5.030;6.610;6.312;8.715
1505977860;11.967;5.077;6.612;6.281;8.712
1505977865;11.647;5.082;6.606;6.243;8.887
1505977870;11.719;5.027;6.595;6.265;8.884
1505977875;11.720;5.029;6.618;6.265;8.723
1505977880;12.022;5.028;6.593;6.269;8.724
1505977885;12.021;5.082;6.604;6.246;8.774
1505977890;11.683;5.016;6.617;6.258;8.870
1505977895;11.713;5.028;6.599;6.273;8.722
1505977900;11.715;5.029;6.619;6.272;8.738
1505977905;12.022;5.084;6.604;6.274;8.735
1505977910;11.713;5.018;6.605;6.243;8.880
1505977915;11.718;5.027;6.596;6.267;8.685
1505977920;11.686;5.017;6.606;6.303;8.712
1505977925;12.015;5.081;6.604;6.272;8.720
1505977930;11.657;5.047;6.601;6.248;8.885
1505977936;11.719;5.029;6.618;6.273;8.719
1505977941;11.718;5.029;6.607;6.269;8.737
1505977946;12.023;5.082;6.596;6.266;8.738
1505977951;11.646;5.081;6.605;6.266;8.843
1505977956;11.712;5.024;6.610;6.272;8.884
1505977961;11.720;5.026;6.610;6.268;8.735
1505977966;12.023;5.026;6.598;6.272;8.744
1505977971;12.023;5.080;6.605;6.246;8.739
1505977976;11.720;5.026;6.614;6.250;8.890
1505977981;11.720;5.025;6.599;6.265;8.719
1505977986;11.841;5.021;6.602;6.274;8.729
1505977991;12.021;5.079;6.606;6.258;8.732
1505977996;11.721;5.015;6.605;6.249;8.890
1505978001;11.721;5.026;6.608;6.272;8.698
1505978006;11.717;5.024;6.609;6.271;8.728
1505978011;12.023;5.080;6.602;6.274;8.734
1505978016;11.628;5.008;6.615;6.252;8.881
1505978021;11.688;5.021;6.623;6.281;8.702
1505978026;11.712;5.025;6.612;6.273;8.733
1505978031;12.024;5.080;6.606;6.268;8.719
1505978036;11.656;5.079;6.607;6.245;8.885
1505978041;11.720;5.025;6.604;6.280;8.711
1505978046;11.720;5.027;6.604;6.273;8.739
1505978052;11.982;5.043;6.602;6.281;8.705
1505978057;11.874;5.079;6.602;6.242;8.893
1505978062;11.720;5.025;6.620;6.271;8.892
1505978067;11.720;5.027;6.596;6.266;8.741
1505978072;12.023;5.028;6.605;6.272;8.738
1505978077;12.023;5.082;6.606;6.246;8.792
1505978082;11.649;5.015;6.606;6.248;8.863
1505978087;11.713;5.025;6.614;6.269;8.733
1505978092;11.747;5.026;6.616;6.272;8.726
1505978097;12.023;5.081;6.603;6.255;8.738
1505978102;11.721;5.015;6.610;6.245;8.898
1505978107;11.721;5.027;6.599;6.273;8.721
1505978112;11.713;5.021;6.618;6.282;8.698
1505978117;12.016;5.079;6.607;6.270;8.725
1505978122;11.659;5.017;6.604;6.243;8.880
1505978127;11.719;5.024;6.595;6.272;8.683
1505978132;11.719;5.023;6.619;6.271;8.724
1505978137;12.024;5.080;6.598;6.270;8.729
1505978142;11.657;5.080;6.613;6.255;8.891
1505978147;11.684;5.021;6.605;6.283;8.809
1505978152;11.720;5.026;6.610;6.276;8.735
1505978157;12.024;5.055;6.618;6.275;8.745
1505978162;11.853;5.081;6.607;6.251;8.849
1505978168;11.721;5.026;6.616;6.269;8.896
1505978173;11.721;5.026;6.607;6.271;8.736
1505978178;11.986;5.020;6.612;6.276;8.717
1505978183;12.016;5.077;6.608;6.240;8.735
1505978188;11.721;5.016;6.605;6.241;8.888
1505978193;11.721;5.025;6.618;6.263;8.718
1505978198;11.717;5.026;6.597;6.267;8.740
1505978203;12.023;5.079;6.600;6.269;8.727
1505978208;11.663;5.008;6.600;6.247;8.877
1505978213;11.713;5.025;6.613;6.273;8.704
1505978218;11.719;5.028;6.619;6.272;8.729
1505978223;12.024;5.084;6.604;6.270;8.728
1505978228;11.658;5.063;6.604;6.248;8.898
1505978233;11.720;5.028;6.616;6.276;8.711
1505978238;11.719;5.021;6.613;6.281;8.719
1505978243;12.016;5.081;6.608;6.268;8.729
1505978248;11.660;5.015;6.603;6.240;8.893
1505978253;11.720;5.025;6.616;6.270;8.709
1505978258;11.720;5.027;6.610;6.267;8.742
1505978263;12.024;5.082;6.607;6.270;8.730
1505978268;11.656;5.080;6.605;6.244;8.875
1505978273;11.688;5.019;6.600;6.268;8.730
1505978278;11.721;5.027;6.606;6.268;8.744
1505978284;12.019;5.053;6.601;6.267;8.740
1505978289;11.866;5.083;6.604;6.245;8.771
1505978294;11.722;5.028;6.603;6.247;8.898
1505978299;11.721;5.029;6.605;6.270;8.730
1505978304;11.755;5.021;6.609;6.270;8.712
1505978309;12.016;5.080;6.600;6.246;8.731
1505978314;11.722;5.016;6.607;6.245;8.896
1505978319;11.721;5.028;6.596;6.268;8.684
1505978324;11.719;5.027;6.607;6.268;8.738
1505978329;12.025;5.082;6.605;6.264;8.727
1505978334;11.625;5.008;6.613;6.251;8.870
1505978339;11.714;5.026;6.616;6.275;8.704
1505978344;11.719;5.028;6.606;6.268;8.728
1505978349;12.025;5.083;6.600;6.265;8.745
1505978354;11.655;5.082;6.605;6.240;8.901
1505978359;11.722;5.028;6.607;6.268;8.895
1505978364;11.721;5.028;6.619;6.265;8.680
1505978369;12.011;5.030;6.604;6.259;8.733
1505978374;12.001;5.081;6.603;6.238;8.881
1505978379;11.721;5.027;6.622;6.254;8.895
1505978384;11.722;5.027;6.618;6.259;8.738
1505978389;11.926;5.028;6.596;6.263;8.742
1505978394;12.024;5.082;6.606;6.239;8.736
1505978400;11.688;5.011;6.619;6.244;8.893
1505978405;11.714;5.028;6.605;6.269;8.721
1505978410;11.719;5.028;6.606;6.266;8.734
1505978415;12.025;5.082;6.603;6.266;8.729
1505978420;11.668;5.016;6.605;6.239;8.888
1505978425;11.722;5.028;6.598;6.264;8.689
1505978430;11.685;5.020;6.611;6.268;8.719
1505978435;12.017;5.079;6.605;6.267;8.734
1505978440;11.657;5.081;6.604;6.243;8.887
1505978445;11.721;5.028;6.597;6.270;8.842
1505978450;11.721;5.028;6.605;6.266;8.725
1505978455;12.025;5.059;6.615;6.270;8.740
1505978460;11.794;5.071;6.617;6.246;8.863
1505978465;11.715;5.027;6.601;6.258;8.893
1505978470;11.722;5.028;6.599;6.264;8.728
1505978475;11.983;5.028;6.602;6.269;8.740
1505978480;12.023;5.081;6.604;6.243;8.738
1505978485;11.723;5.016;6.614;6.246;8.893
1505978490;11.723;5.021;6.609;6.296;8.700
1505978495;11.712;5.025;6.617;6.270;8.734
1505978500;12.025;5.080;6.603;6.268;8.729
1505978505;11.704;5.014;6.605;6.241;8.888
1505978510;11.723;5.024;6.619;6.267;8.711
1505978516;11.720;5.024;6.612;6.271;8.744
1505978521;12.026;5.081;6.596;6.270;8.738
1505978526;11.626;5.069;6.609;6.248;8.892
1505978531;11.708;5.027;6.618;6.275;8.735
1505978536;11.720;5.027;6.596;6.268;8.744
1505978541;12.026;5.059;6.618;6.263;8.742
1505978546;11.833;5.082;6.607;6.241;8.898
1505978551;11.722;5.027;6.607;6.270;8.888
1505978556;11.686;5.020;6.606;6.269;8.728
1505978561;12.018;5.026;6.615;6.268;8.739
1505978566;12.025;5.082;6.607;6.249;8.725
1505978571;11.723;5.023;6.619;6.249;8.897
1505978576;11.723;5.028;6.596;6.269;8.734
1505978581;11.710;5.027;6.600;6.272;8.739
1505978586;11.985;5.076;6.598;6.271;8.732
1505978591;11.716;5.015;6.606;6.245;8.904
1505978596;11.723;5.026;6.596;6.270;8.711
1505978601;11.720;5.027;6.605;6.272;8.742
1505978606;12.025;5.082;6.602;6.272;8.735
1505978611;11.660;5.039;6.603;6.243;8.892
1505978616;11.666;5.019;6.611;6.280;8.707
1505978621;11.715;5.026;6.608;6.272;8.730
1505978626;12.026;5.083;6.598;6.270;8.742
1505978632;11.657;5.081;6.604;6.246;8.901
1505978637;11.723;5.026;6.595;6.272;8.893
1505978642;11.722;5.026;6.597;6.274;8.734
1505978647;12.026;5.022;6.644;6.274;8.708
1505978652;12.018;5.079;6.606;6.238;8.735
1505978657;11.722;5.016;6.614;6.243;8.898
1505978662;11.723;5.027;6.610;6.268;8.738
1505978667;11.720;5.026;6.600;6.267;8.730
1505978672;12.025;5.080;6.605;6.265;8.739
1505978677;11.703;5.014;6.603;6.268;8.879
1505978682;11.715;5.024;6.613;6.267;8.708
1505978687;11.721;5.026;6.595;6.266;8.742
1505978692;12.019;5.082;6.605;6.269;8.740
1505978697;11.660;5.067;6.604;6.240;8.900
1505978702;11.724;5.028;6.596;6.266;8.712
1505978707;11.722;5.027;6.600;6.261;8.733
1505978712;11.992;5.069;6.615;6.263;8.736
1505978717;11.709;5.082;6.605;6.241;8.905
1505978722;11.723;5.027;6.598;6.266;8.903
1505978727;11.722;5.027;6.617;6.260;8.744
1505978732;12.026;5.026;6.604;6.265;8.738
1505978737;12.026;5.081;6.604;6.240;8.786
1505978742;11.690;5.020;6.611;6.241;8.902
1505978748;11.716;5.025;6.609;6.263;8.736
1505978753;11.778;5.027;6.619;6.264;8.733
1505978758;12.027;5.083;6.604;6.248;8.732
1505978763;11.723;5.016;6.607;6.240;8.898
1505978768;11.724;5.026;6.602;6.261;8.707
1505978773;11.688;5.020;6.599;6.279;8.724
1505978778;12.019;5.080;6.609;6.273;8.737
1505978783;11.661;5.017;6.608;6.248;8.901
1505978788;11.724;5.029;6.617;6.268;8.713
1505978793;11.722;5.027;6.614;6.264;8.738
1505978798;12.026;5.082;6.612;6.263;8.732
1505978803;11.637;5.069;6.607;6.257;8.889
1505978808;11.716;5.027;6.608;6.277;8.892
1505978813;11.722;5.028;6.616;6.270;8.744
1505978818;12.026;5.053;6.614;6.271;8.735
1505978823;11.866;5.080;6.603;6.250;8.902
1505978828;11.723;5.028;6.622;6.269;8.896
1505978833;11.722;5.027;6.616;6.306;8.726
1505978838;12.019;5.026;6.602;6.269;8.743
1505978843;12.027;5.081;6.607;6.244;8.738
1505978848;11.723;5.017;6.615;6.247;8.900
1505978853;11.723;5.027;6.613;6.270;8.735
1505978858;11.720;5.026;6.618;6.265;8.736
1505978864;12.026;5.082;6.604;6.268;8.733
1505978869;11.689;5.011;6.611;6.249;8.898
1505978874;11.714;5.025;6.612;6.276;8.709
1505978879;11.723;5.025;6.618;6.274;8.746
1505978884;12.026;5.081;6.610;6.270;8.745
1505978889;11.659;5.080;6.603;6.248;8.901
1505978894;11.725;5.026;6.612;6.275;8.781
1505978899;11.690;5.020;6.609;6.267;8.736
1505978904;12.020;5.057;6.607;6.269;8.737
1505978909;11.846;5.081;6.604;6.243;8.882
1505978914;11.725;5.027;6.622;6.277;8.904
1505978919;11.723;5.027;6.610;6.266;8.744
1505978924;12.026;5.026;6.612;6.265;8.740
1505978929;11.987;5.075;6.603;6.246;8.727
1505978934;11.718;5.017;6.609;6.237;8.900
1505978939;11.724;5.025;6.618;6.259;8.733
1505978944;11.721;5.027;6.612;6.262;8.743
1505978949;12.027;5.081;6.604;6.263;8.740
1505978954;11.716;5.015;6.608;6.239;8.906
1505978959;11.678;5.020;6.611;6.265;8.696
1505978964;11.715;5.023;6.603;6.256;8.737
1505978969;12.027;5.080;6.602;6.257;8.736
1505978975;11.660;5.061;6.602;6.235;8.903
1505978980;11.725;5.025;6.599;6.261;8.790
1505978985;11.724;5.025;6.606;6.259;8.746
1505978990;12.018;5.074;6.615;6.265;8.733
1505978995;11.653;5.078;6.607;6.238;8.897
1505979000;11.724;5.025;6.618;6.267;8.900
1505979005;11.724;5.026;6.597;6.260;8.745
1505979010;12.027;5.025;6.597;6.263;8.739
1505979015;12.028;5.080;6.604;6.241;8.741
1505979020;11.725;5.015;6.610;6.244;8.890
1505979025;11.692;5.019;6.610;6.263;8.724
1505979030;11.714;5.023;6.612;6.266;8.742
1505979035;12.028;5.080;6.605;6.266;8.743
1505979040;11.690;5.014;6.606;6.247;8.903
1505979045;11.723;5.025;6.619;6.269;8.715
1505979050;11.723;5.024;6.611;6.264;8.744
1505979055;11.994;5.071;6.598;6.264;8.743
1505979060;11.582;5.053;6.630;6.275;8.877
1505979065;11.717;5.024;6.616;6.272;8.801
1505979070;11.724;5.025;6.598;6.264;8.740
1505979075;12.027;5.074;6.618;6.260;8.742
1505979080;11.703;5.078;6.604;6.235;8.898
1505979085;11.725;5.024;6.609;6.265;8.902
1505979091;11.725;5.022;6.623;6.270;8.710
1505979096;12.020;5.024;6.608;6.262;8.736
1505979101;12.027;5.081;6.603;6.239;8.737
1505979106;11.726;5.025;6.595;6.241;8.899
1505979111;11.725;5.028;6.597;6.267;8.732
1505979116;11.744;5.028;6.606;6.267;8.736
1505979121;12.028;5.083;6.600;6.263;8.686
1505979126;11.707;5.016;6.618;6.244;8.904
1505979131;11.724;5.027;6.618;6.261;8.698
1505979136;11.722;5.026;6.607;6.265;8.742
1505979141;12.028;5.081;6.608;6.238;8.738
1505979146;11.725;5.018;6.602;6.240;8.903
1505979151;11.725;5.025;6.605;6.263;8.743
1505979156;11.701;5.020;6.604;6.273;8.718
1505979161;12.020;5.072;6.609;6.257;8.741
1505979166;11.719;5.012;6.607;6.239;8.905
1505979171;11.725;5.026;6.606;6.261;8.698
1505979176;11.723;5.027;6.606;6.260;8.743
1505979181;12.028;5.080;6.609;6.261;8.745
1505979186;11.626;5.053;6.604;6.244;8.883
1505979191;11.718;5.026;6.610;6.270;8.711
1505979196;11.725;5.026;6.609;6.261;8.747
1505979201;12.028;5.081;6.609;6.261;8.741
1505979207;11.659;5.082;6.609;6.238;8.899
1505979212;11.726;5.028;6.621;6.265;8.867
1505979217;11.690;5.009;6.599;6.278;8.709
1505979222;12.021;5.027;6.604;6.266;8.733
1505979227;12.029;5.083;6.605;6.238;8.756
1505979232;11.726;5.023;6.596;6.240;8.901
1505979237;11.725;5.029;6.620;6.265;8.742
1505979242;11.829;5.029;6.613;6.264;8.734
1505979247;12.029;5.083;6.601;6.298;8.715
1505979252;11.719;5.016;6.617;6.240;8.902
1505979257;11.725;5.028;6.600;6.263;8.735
1505979262;11.723;5.029;6.599;6.263;8.750
1505979267;12.029;5.083;6.604;6.258;8.742
1505979272;11.663;5.014;6.605;6.236;8.905
1505979277;11.726;5.027;6.618;6.265;8.699
1505979282;11.692;5.019;6.609;6.260;8.742
1505979287;12.026;5.081;6.611;6.258;8.739
1505979292;11.661;5.081;6.599;6.237;8.899
1505979297;11.726;5.028;6.618;6.272;8.823
1505979302;11.725;5.029;6.619;6.264;8.742
1505979307;12.028;5.082;6.609;6.239;8.719
1505979312;11.694;5.016;6.617;6.246;8.872
1505979318;11.718;5.027;6.613;6.261;8.741
1505979323;11.723;5.029;6.616;6.262;8.737
1505979328;12.029;5.083;6.602;6.264;8.735
1505979333;11.705;5.015;6.606;6.237;8.898
1505979338;11.726;5.025;6.595;6.262;8.699
1505979343;11.692;5.023;6.615;6.324;8.722
1505979348;12.021;5.081;6.604;6.261;8.737
1505979353;11.663;5.054;6.607;6.240;8.901
1505979358;11.727;5.028;6.597;6.268;8.693
1505979363;11.725;5.028;6.615;6.259;8.738
1505979368;11.726;5.080;6.608;6.240;8.900
1505979373;11.727;5.027;6.602;6.266;8.897
1505979378;11.692;5.018;6.604;6.265;8.740
1505979383;12.025;5.032;6.617;6.269;8.747
1505979388;12.027;5.080;6.608;6.245;8.902
1505979393;11.727;5.025;6.604;6.253;8.905
1505979398;11.725;5.024;6.597;6.265;8.748
1505979403;11.987;5.024;6.616;6.264;8.746
1505979408;11.995;5.073;6.600;6.245;8.739
1505979413;11.720;5.012;6.621;6.238;8.905
1505979418;11.726;5.024;6.607;6.263;8.747
1505979423;11.724;5.026;6.610;6.262;8.745
1505979429;12.030;5.080;6.607;6.259;8.744
1505979434;11.692;5.013;6.606;6.238;8.902
1505979439;11.658;5.019;6.611;6.273;8.692
1505979444;11.718;5.025;6.615;6.263;8.733
1505979449;12.029;5.080;6.593;6.258;8.733
1505979454;11.661;5.080;6.607;6.240;8.900
1505979459;11.727;5.026;6.619;6.264;8.695
1505979464;11.726;5.025;6.604;6.259;8.746
1505979469;12.021;5.071;6.632;6.265;8.718
1505979474;11.705;5.079;6.598;6.234;8.900
1505979479;11.727;5.026;6.611;6.268;8.904
1505979484;11.727;5.027;6.598;6.262;8.742
1505979489;11.914;5.027;6.603;6.256;8.742
1505979494;12.030;5.081;6.605;6.235;8.733
1505979499;11.728;5.016;6.620;6.237;8.864
1505979504;11.697;5.025;6.602;6.259;8.697
1505979509;11.724;5.027;6.617;6.263;8.747
1505979514;12.030;5.081;6.598;6.257;8.743
1505979519;11.665;5.027;6.605;6.233;8.908
1505979524;11.727;5.026;6.600;6.261;8.696
1505979529;11.726;5.024;6.599;6.254;8.743
1505979534;11.993;5.074;6.612;6.258;8.739
1505979540;11.656;5.079;6.608;6.228;8.900
1505979545;11.727;5.022;6.606;6.257;8.878
1505979550;11.727;5.025;6.599;6.255;8.739
1505979555;12.031;5.035;6.602;6.250;8.746
1505979560;11.954;5.078;6.604;6.233;8.861
1505979565;11.695;5.018;6.604;6.240;8.900
1505979570;11.720;5.024;6.603;6.253;8.736
1505979575;11.940;5.025;6.598;6.257;8.743
1505979580;12.029;5.079;6.604;6.230;8.740
1505979585;11.728;5.013;6.604;6.231;8.904
1505979590;11.728;5.027;6.604;6.254;8.746
1505979595;11.679;5.018;6.602;6.253;8.724
1505979600;12.023;5.079;6.599;6.255;8.730
1505979605;11.697;5.014;6.604;6.227;8.898
1505979610;11.727;5.025;6.595;6.256;8.713
1505979615;11.725;5.026;6.600;6.255;8.744
1505979620;12.031;5.079;6.599;6.251;8.747
1505979625;11.649;5.015;6.608;6.249;8.865
1505979630;11.720;5.023;6.602;6.254;8.691
1505979635;11.725;5.025;6.617;6.257;8.742
1505979640;12.031;5.080;6.600;6.254;8.736
1505979645;11.665;5.017;6.604;6.230;8.907
1505979651;11.727;5.024;6.615;6.264;8.697
1505979656;11.727;5.025;6.615;6.289;8.744
1505979661;11.970;5.071;6.626;6.285;8.697
1505979666;11.630;5.072;6.603;6.237;8.896
1505979671;11.721;5.023;6.612;6.262;8.893
1505979676;11.727;5.024;6.602;6.257;8.739
1505979681;12.030;5.032;6.616;6.256;8.745
1505979686;11.975;5.080;6.602;6.232;8.800
1505979691;11.729;5.026;6.621;6.242;8.904
1505979696;11.696;5.018;6.606;6.260;8.740
1505979701;11.944;5.025;6.597;6.256;8.743
1505979706;12.030;5.078;6.607;6.229;8.736
1505979711;11.729;5.013;6.622;6.231;8.902
1505979716;11.727;5.024;6.606;6.259;8.715
1505979721;11.725;5.024;6.601;6.258;8.738
1505979726;11.996;5.071;6.617;6.258;8.736
1505979731;11.659;5.011;6.605;6.233;8.902
1505979736;11.728;5.024;6.616;6.261;8.691
1505979741;11.727;5.023;6.611;6.255;8.742
1505979746;12.031;5.078;6.607;6.259;8.744
1505979751;11.663;5.077;6.609;6.237;8.905
1505979756;11.696;5.017;6.620;6.318;8.721
1505979761;11.720;5.022;6.608;6.258;8.745
1505979767;12.031;5.049;6.600;6.250;8.735
1505979772;11.869;5.079;6.609;6.226;8.901
1505979777;11.729;5.024;6.603;6.248;8.903
1505979782;11.729;5.024;6.602;6.255;8.744
1505979787;12.030;5.023;6.604;6.252;8.715
1505979792;11.994;5.069;6.609;6.227;8.742
1505979797;11.722;5.012;6.600;6.230;8.904
1505979802;11.729;5.024;6.602;6.251;8.734
1505979807;11.725;5.022;6.598;6.246;8.742
1505979812;12.032;5.076;6.604;6.248;8.743
1505979817;11.703;5.009;6.604;6.226;8.906
1505979822;11.692;5.014;6.606;6.251;8.686
1505979827;11.720;5.019;6.605;6.244;8.746
1505979832;12.032;5.074;6.603;6.251;8.744
1505979837;11.666;5.046;6.603;6.229;8.901
1505979842;11.729;5.021;6.615;6.251;8.751
1505979847;11.728;5.017;6.607;6.248;8.745
1505979852;11.978;5.066;6.619;6.257;8.724
1505979857;11.713;5.074;6.607;6.231;8.901
1505979862;11.729;5.017;6.622;6.252;8.905
1505979867;11.729;5.018;6.605;6.249;8.741
1505979872;12.032;5.021;6.602;6.253;8.747
1505979877;12.031;5.075;6.601;6.230;8.737
1505979883;11.730;5.009;6.628;6.232;8.894
1505979888;11.722;5.018;6.613;6.255;8.738
1505979893;11.755;5.021;6.602;6.259;8.747
1505979898;12.032;5.077;6.610;6.247;8.746
1505979903;11.730;5.010;6.610;6.229;8.906
1505979908;11.730;5.021;6.614;6.257;8.708
1505979913;11.727;5.021;6.611;6.258;8.727
1505979918;11.998;5.069;6.602;6.251;8.733
1505979923;11.668;5.017;6.602;6.229;8.903
1505979928;11.729;5.020;6.614;6.252;8.701
1505979933;11.727;5.020;6.606;6.254;8.745
1505979938;12.033;5.077;6.601;6.249;8.737
1505979943;11.663;5.075;6.604;6.221;8.907
1505979948;11.697;5.014;6.614;6.250;8.902
1505979953;11.722;5.020;6.599;6.246;8.748
1505979958;12.033;5.021;6.603;6.248;8.746
1505979963;12.032;5.074;6.605;6.234;8.780
1505979968;11.729;5.015;6.604;6.235;8.904
1505979973;11.730;5.016;6.600;6.261;8.741
1505979978;11.780;5.012;6.611;6.266;8.726
1505979983;12.025;5.070;6.601;6.252;8.741
1505979988;11.731;5.006;6.609;6.240;8.908
1505979993;11.730;5.019;6.611;6.240;8.724
1505979999;11.727;5.020;6.589;6.240;8.746
1505980004;12.031;5.074;6.593;6.235;8.743
1505980009;11.622;4.999;6.597;6.214;8.892
1505980014;11.722;5.018;6.581;6.243;8.706
1505980019;11.728;5.017;6.582;6.238;8.739
1505980024;12.033;5.075;6.584;6.243;8.740
1505980029;11.657;5.074;6.590;6.218;8.903
1505980034;11.730;5.022;6.583;6.249;8.902
1505980039;11.728;5.022;6.593;6.244;8.713
1505980044;12.024;5.021;6.593;6.246;8.736
1505980049;12.032;5.076;6.604;6.207;8.835
1505980087;0.022;0.005;0.047;0.018;0.017
1505980092;0.022;0.005;0.047;0.018;0.017
1505980097;0.022;0.005;0.047;0.017;0.017
1506322915;0.022;0.005;0.047;0.018;0.017
